Stündliche Wetter Abdullino

Heute, 24 Juni, Donnerstag

Zeit Temperatur Niederschläge Wind Luftdruck Luftfeuchtigkeit
00:00 +15°C° 0 mm 1 m/S 750 mmHg 90%
01:00 +14°C° 0 mm 1 m/S 750 mmHg 90%
02:00 +13°C° 0 mm 1 m/S 751 mmHg 89%
03:00 +13°C° 0 mm 1 m/S 751 mmHg 87%
04:00 +12°C° 0 mm 1 m/S 751 mmHg 86%
05:00 +14°C° 0 mm 1 m/S 751 mmHg 78%
06:00 +18°C° 0 mm 1 m/S 752 mmHg 70%
07:00 +20°C° 0 mm 1 m/S 752 mmHg 62%
08:00 +21°C° 0 mm 1 m/S 752 mmHg 53%
09:00 +23°C° 0 mm 1 m/S 752 mmHg 44%
10:00 +23°C° 0 mm 0 m/S 752 mmHg 34%
11:00 +26°C° 0 mm 1 m/S 752 mmHg 33%
12:00 +27°C° 0 mm 1 m/S 751 mmHg 31%
13:00 +27°C° 0 mm 2 m/S 751 mmHg 29%
14:00 +27°C° 0 mm 2 m/S 751 mmHg 32%
15:00 +27°C° 0 mm 2 m/S 751 mmHg 35%
16:00 +27°C° 0 mm 2 m/S 751 mmHg 37%
17:00 +26°C° 0 mm 2 m/S 750 mmHg 47%
18:00 +25°C° 0 mm 2 m/S 750 mmHg 57%
19:00 +24°C° 0 mm 1 m/S 750 mmHg 66%
20:00 +21°C° 0 mm 2 m/S 750 mmHg 70%
21:00 +20°C° 0 mm 2 m/S 749 mmHg 73%
22:00 +18°C° 0 mm 2 m/S 749 mmHg 77%
23:00 +18°C° 0.5 mm 2 m/S 749 mmHg 82%

Morgen, 25 Juni, Freitag

Zeit Temperatur Niederschläge Wind Luftdruck Luftfeuchtigkeit
00:00 +18°C° 0.5 mm 1 m/S 748 mmHg 87%
01:00 +18°C° 0.5 mm 1 m/S 748 mmHg 93%
02:00 +17°C° 0.2 mm 2 m/S 748 mmHg 94%
03:00 +17°C° 0.2 mm 2 m/S 748 mmHg 95%
04:00 +17°C° 0.2 mm 2 m/S 747 mmHg 96%
05:00 +18°C° 0 mm 2 m/S 747 mmHg 96%
06:00 +19°C° 0 mm 2 m/S 747 mmHg 95%
07:00 +20°C° 0 mm 2 m/S 747 mmHg 95%
08:00 +23°C° 0 mm 2 m/S 747 mmHg 85%
09:00 +25°C° 0 mm 2 m/S 747 mmHg 75%
10:00 +27°C° 0 mm 2 m/S 747 mmHg 65%
11:00 +28°C° 0.1 mm 2 m/S 747 mmHg 63%
12:00 +29°C° 0.1 mm 2 m/S 747 mmHg 60%
13:00 +30°C° 0.1 mm 3 m/S 746 mmHg 57%
14:00 +30°C° 0.1 mm 3 m/S 746 mmHg 59%
15:00 +29°C° 0.1 mm 3 m/S 746 mmHg 62%
16:00 +29°C° 0.1 mm 3 m/S 746 mmHg 65%
17:00 +28°C° 0.9 mm 3 m/S 746 mmHg 72%
18:00 +27°C° 0.9 mm 2 m/S 746 mmHg 79%
19:00 +26°C° 0.9 mm 2 m/S 746 mmHg 86%
20:00 +24°C° 0.9 mm 1 m/S 746 mmHg 88%
21:00 +23°C° 0.9 mm 1 m/S 745 mmHg 90%
22:00 +20°C° 0.9 mm 0 m/S 745 mmHg 92%
23:00 +21°C° 3.2 mm 1 m/S 745 mmHg 94%

übermorgen, 26 Juni, Samstag

Zeit Temperatur Niederschläge Wind Luftdruck Luftfeuchtigkeit
00:00 +21°C° 3.2 mm 1 m/S 745 mmHg 95%
01:00 +19°C° 3.2 mm 2 m/S 745 mmHg 97%
02:00 +20°C° 0 mm 1 m/S 745 mmHg 96%
03:00 +19°C° 0 mm 1 m/S 745 mmHg 95%
04:00 +19°C° 0 mm 1 m/S 745 mmHg 94%
05:00 +20°C° 0 mm 1 m/S 745 mmHg 94%
06:00 +21°C° 0 mm 1 m/S 745 mmHg 93%
07:00 +22°C° 0 mm 1 m/S 745 mmHg 92%
08:00 +24°C° 0 mm 2 m/S 745 mmHg 84%
09:00 +26°C° 0 mm 2 m/S 745 mmHg 75%
10:00 +28°C° 0 mm 2 m/S 745 mmHg 67%
11:00 +28°C° 0.4 mm 2 m/S 745 mmHg 69%
12:00 +29°C° 0.4 mm 2 m/S 745 mmHg 71%
13:00 +29°C° 0.4 mm 2 m/S 744 mmHg 74%
14:00 +29°C° 1.5 mm 2 m/S 744 mmHg 77%
15:00 +28°C° 1.5 mm 2 m/S 744 mmHg 81%
16:00 +28°C° 1.5 mm 2 m/S 744 mmHg 84%
17:00 +27°C° 1.3 mm 2 m/S 744 mmHg 86%
18:00 +26°C° 1.3 mm 2 m/S 744 mmHg 88%
19:00 +25°C° 1.3 mm 2 m/S 744 mmHg 90%
20:00 +24°C° 0.6 mm 2 m/S 744 mmHg 90%
21:00 +23°C° 0.6 mm 1 m/S 744 mmHg 91%
22:00 +22°C° 0.6 mm 1 m/S 744 mmHg 91%
23:00 +20°C° 0 mm 0 m/S 744 mmHg 91%

27 Juni, Sonntag

Zeit Temperatur Niederschläge Wind Luftdruck Luftfeuchtigkeit
00:00 +19°C° 0 mm 0 m/S 744 mmHg 91%
01:00 +19°C° 0 mm 0 m/S 744 mmHg 92%
02:00 +19°C° 0 mm 0 m/S 744 mmHg 92%
03:00 +19°C° 0 mm 0 m/S 744 mmHg 92%
04:00 +19°C° 0 mm 0 m/S 744 mmHg 93%
05:00 +20°C° 0 mm 0 m/S 745 mmHg 91%
06:00 +21°C° 0 mm 0 m/S 745 mmHg 90%
07:00 +24°C° 0 mm 1 m/S 745 mmHg 89%
08:00 +25°C° 0 mm 1 m/S 745 mmHg 79%
09:00 +26°C° 0 mm 2 m/S 745 mmHg 70%
10:00 +28°C° 0 mm 2 m/S 745 mmHg 60%
11:00 +29°C° 0.1 mm 2 m/S 745 mmHg 56%
12:00 +29°C° 0.1 mm 3 m/S 745 mmHg 52%
13:00 +30°C° 0.1 mm 3 m/S 745 mmHg 48%
14:00 +30°C° 0 mm 4 m/S 746 mmHg 48%
15:00 +29°C° 0 mm 4 m/S 746 mmHg 48%
16:00 +29°C° 0 mm 4 m/S 746 mmHg 47%
17:00 +28°C° 0 mm 4 m/S 746 mmHg 53%
18:00 +26°C° 0 mm 3 m/S 746 mmHg 59%
19:00 +25°C° 0 mm 2 m/S 747 mmHg 64%
20:00 +23°C° 0 mm 2 m/S 747 mmHg 70%
21:00 +21°C° 0 mm 2 m/S 747 mmHg 75%
22:00 +20°C° 0 mm 1 m/S 747 mmHg 80%
23:00 +19°C° 0 mm 1 m/S 747 mmHg 81%

28 Juni, Montag

Zeit Temperatur Niederschläge Wind Luftdruck Luftfeuchtigkeit
00:00 +18°C° 0 mm 1 m/S 748 mmHg 82%
01:00 +18°C° 0 mm 1 m/S 748 mmHg 84%
02:00 +18°C° 0 mm 1 m/S 748 mmHg 85%
03:00 +16°C° 0 mm 1 m/S 748 mmHg 86%
04:00 +16°C° 0 mm 1 m/S 748 mmHg 88%
05:00 +19°C° 0 mm 1 m/S 749 mmHg 81%
06:00 +21°C° 0 mm 1 m/S 749 mmHg 75%
07:00 +22°C° 0 mm 1 m/S 749 mmHg 68%
08:00 +24°C° 0 mm 1 m/S 749 mmHg 63%
09:00 +25°C° 0 mm 1 m/S 749 mmHg 57%
10:00 +27°C° 0 mm 1 m/S 749 mmHg 52%
11:00 +27°C° 0 mm 2 m/S 749 mmHg 49%
12:00 +28°C° 0 mm 2 m/S 749 mmHg 45%
13:00 +29°C° 0 mm 2 m/S 748 mmHg 42%
14:00 +29°C° 0 mm 2 m/S 748 mmHg 42%
15:00 +29°C° 0 mm 2 m/S 748 mmHg 42%
16:00 +29°C° 0 mm 2 m/S 748 mmHg 42%
17:00 +28°C° 0 mm 2 m/S 748 mmHg 50%
18:00 +26°C° 0 mm 2 m/S 749 mmHg 57%
19:00 +25°C° 0 mm 1 m/S 749 mmHg 65%
20:00 +23°C° 0 mm 1 m/S 749 mmHg 68%
21:00 +22°C° 0 mm 1 m/S 749 mmHg 71%
22:00 +20°C° 0 mm 1 m/S 749 mmHg 73%
23:00 +19°C° 0 mm 1 m/S 749 mmHg 74%

29 Juni, Dienstag

Zeit Temperatur Niederschläge Wind Luftdruck Luftfeuchtigkeit
00:00 +19°C° 0 mm 1 m/S 749 mmHg 75%
01:00 +18°C° 0 mm 1 m/S 749 mmHg 77%
02:00 +18°C° 0 mm 1 m/S 749 mmHg 78%
03:00 +18°C° 0 mm 1 m/S 749 mmHg 80%
04:00 +16°C° 0 mm 1 m/S 749 mmHg 81%
05:00 +19°C° 0 mm 1 m/S 749 mmHg 76%
06:00 +21°C° 0 mm 1 m/S 750 mmHg 70%
07:00 +23°C° 0 mm 1 m/S 750 mmHg 65%
08:00 +25°C° 0 mm 1 m/S 750 mmHg 59%
09:00 +26°C° 0 mm 2 m/S 750 mmHg 52%
10:00 +28°C° 0 mm 2 m/S 749 mmHg 46%
11:00 +29°C° 0 mm 2 m/S 749 mmHg 43%
12:00 +29°C° 0 mm 2 m/S 749 mmHg 41%
13:00 +30°C° 0 mm 2 m/S 749 mmHg 38%
14:00 +30°C° 0 mm 2 m/S 749 mmHg 40%
15:00 +30°C° 0 mm 2 m/S 749 mmHg 41%
16:00 +30°C° 0 mm 2 m/S 749 mmHg 43%
17:00 +29°C° 0 mm 2 m/S 748 mmHg 52%
18:00 +27°C° 0 mm 1 m/S 748 mmHg 62%
19:00 +26°C° 0 mm 1 m/S 748 mmHg 71%
20:00 +24°C° 0 mm 1 m/S 748 mmHg 74%
21:00 +23°C° 0 mm 1 m/S 748 mmHg 76%
22:00 +21°C° 0 mm 1 m/S 748 mmHg 79%
23:00 +21°C° 0 mm 1 m/S 748 mmHg 80%
Mehr zeigen

Wir brauchen deine Erlaubnis

Meteoprog und unser Service Anbieter werden persönliche Daten aufbewahren, so wie Cookies, Geräte Bezeichnung oder ähnliche Technologien von deinem Gerät und Prozess, so wie Persönliche Daten Inhalte und Werbungen, genauso wie social Media und den Verkehr zu analysieren.

  • Aufbewahrung und/oder Zugang zu deiner Geräte Informationen.

    Cookies, Geräte Bezeichnung oder andere Informationen, können aufbewahrt oder Zugang zu deinem Gerät erhalten, für den Grund, der oben angegeben wird.

  • Personalisierte Werbung und Inhalte, Messungen, Einblick in das Publikum und Produkt Entwicklung.

    Werbungen und Inhalte können personalisiert werden, basierend auf ein Profil. Mehr Daten können besser personalisierte Werbungen und Inhalte hinzufügen. Werbung und Inhalte können gezeigt und gemessen werden. Einblicke über das Publikum, welche die Werbung gesehen haben und den Inhalt, können abgeleitet werden. So wie Daten können genutzt werden, um es zu verbessern oder die Benutzer Erfahrung zu verbessern das System und die Software.

Wenn du “Ich stimme zu” klickst, erlaubst du uns, die Cookies zu benutzen die Geräte Bezeichnung, den Web oder ähnliche Technologien zu benutzen. Deine Settings, können in deinem Gerät bei deinem Browser geändert werden.

Für den bestimmten Zweck, berechtigten Interessen beruhen darauf, mehr als auf den Inhalt. Du kannst mehr darüber in unseren Privaten und Cookie Politik lesen.